Change the Weather History Date:

Sunday, November 18, 2012

  Actual Average Record
Temperature  
Mean Temperature 48 °F -  
Max Temperature 57 °F 41 °F 65 °F (1953)
Min Temperature 39 °F 24 °F -1 °F (1989)
Degree Days  
Heating Degree Days 17    
Moisture  
Dew Point 33 °F    
Average Humidity 57    
Maximum Humidity 70    
Minimum Humidity 41    
Precipitation  
Precipitation 0.00 in - - ()
Sea Level Pressure  
Sea Level Pressure 30.12 in    
Wind  
Wind Speed 10 mph (SSE)    
Max Wind Speed 15 mph    
Max Gust Speed 26 mph    
Visibility 10 miles    
Events      
Averages and records for this station are not official NWS values.
T = Trace of Precipitation, MM = Missing Value Source: NWS Daily Summary

Daily Weather History Graph

Daily Weather History Graph

Search for Another Location

Airport or City:

Trip Planner

Search our weather history database for the weather conditions in past years. The results will help you decide how hot, cold, wet, or windy it might be!

Date:

Astronomy

Nov. 18, 2012 Rise Set
Actual Time 7:14 AM CST 4:41 PM CST
Civil Twilight 6:42 AM CST 5:13 PM CST
Nautical Twilight 6:06 AM CST 5:49 PM CST
Astronomical Twilight 5:32 AM CST 6:23 PM CST
Moon 11:38 AM CST (11/18) 10:05 PM CST (11/18)
Length of Visible Light 10h 31m
Length of Day
9h 27m
Waxing Crescent, 30% of the Moon is Illuminated
Nov 18
Waxing Crescent
Nov 20
First Quarter
Nov 28
Full
Dec 6
Last Quarter
Dec 13
New

Hourly Weather History & Observations

Time (CST) Temp. Windchill Dew Point Humidity Pressure Visibility Wind Dir Wind Speed Gust Speed Precip Events Conditions
12:14 AM 46.4 °F 40.7 °F 33.8 °F 62% 30.21 in 10.0 mi South 12.7 mph - N/A   Overcast
12:34 AM 46.4 °F 41.1 °F 33.8 °F 62% 30.20 in 10.0 mi South 11.5 mph 18.4 mph N/A   Overcast
12:53 AM 46.4 °F 41.1 °F 33.8 °F 62% 30.20 in 10.0 mi SSE 11.5 mph 18.4 mph N/A   Overcast
1:14 AM 46.4 °F 41.5 °F 33.8 °F 62% 30.19 in 10.0 mi SSE 10.4 mph 16.1 mph N/A   Overcast
1:33 AM 46.4 °F 41.5 °F 33.8 °F 62% 30.19 in 10.0 mi SSE 10.4 mph - N/A   Overcast
1:54 AM 46.4 °F 41.9 °F 33.8 °F 62% 30.19 in 10.0 mi SSE 9.2 mph - N/A   Overcast
2:14 AM 46.4 °F 41.1 °F 33.8 °F 62% 30.19 in 10.0 mi South 11.5 mph 17.3 mph N/A   Overcast
2:33 AM 46.4 °F 41.9 °F 33.8 °F 62% 30.18 in 10.0 mi South 9.2 mph - N/A   Overcast
2:54 AM 46.4 °F 41.5 °F 33.8 °F 62% 30.18 in 10.0 mi SSE 10.4 mph - N/A   Overcast
3:14 AM 46.4 °F 41.5 °F 33.8 °F 62% 30.18 in 10.0 mi SSE 10.4 mph - N/A   Overcast
3:33 AM 46.4 °F 41.1 °F 32.0 °F 57% 30.17 in 10.0 mi SSE 11.5 mph - N/A   Overcast
3:54 AM 46.4 °F 41.9 °F 32.0 °F 57% 30.16 in 10.0 mi South 9.2 mph - N/A   Overcast
4:14 AM 46.4 °F 41.5 °F 32.0 °F 57% 30.16 in 10.0 mi SSE 10.4 mph - N/A   Overcast
4:33 AM 46.4 °F 40.7 °F 32.0 °F 57% 30.15 in 10.0 mi SSE 12.7 mph 16.1 mph N/A   Overcast
4:54 AM 46.4 °F 40.7 °F 30.2 °F 53% 30.15 in 10.0 mi SSE 12.7 mph 17.3 mph N/A   Overcast
5:14 AM 44.6 °F 38.8 °F 30.2 °F 57% 30.15 in 10.0 mi SSE 11.5 mph 19.6 mph N/A   Mostly Cloudy
5:33 AM 44.6 °F 40.2 °F 30.2 °F 57% 30.15 in 10.0 mi SSE 8.1 mph - N/A   Mostly Cloudy
5:54 AM 42.8 °F 38.6 °F 30.2 °F 61% 30.16 in 10.0 mi SE 6.9 mph - N/A   Scattered Clouds
6:14 AM 41.0 °F 37.1 °F 30.2 °F 65% 30.15 in 10.0 mi SE 5.8 mph - N/A   Unknown
6:33 AM 41.0 °F 37.1 °F 30.2 °F 65% 30.15 in 10.0 mi SSE 5.8 mph - N/A   Unknown
6:54 AM 39.2 °F 35.0 °F 30.2 °F 70% 30.15 in 10.0 mi SE 5.8 mph - N/A   Clear
7:14 AM 39.2 °F 34.2 °F 30.2 °F 70% 30.15 in 10.0 mi SE 6.9 mph - N/A   Clear
7:33 AM 39.2 °F 34.2 °F 30.2 °F 70% 30.14 in 10.0 mi SE 6.9 mph - N/A   Clear
7:54 AM 39.2 °F 35.0 °F 30.2 °F 70% 30.14 in 10.0 mi SSE 5.8 mph - N/A   Clear
8:14 AM 41.0 °F 36.4 °F 30.2 °F 65% 30.14 in 10.0 mi SE 6.9 mph - N/A   Clear
8:33 AM 42.8 °F 38.0 °F 32.0 °F 66% 30.14 in 10.0 mi SE 8.1 mph - N/A   Clear
8:54 AM - - - N/A% 30.14 in 10.0 mi SSE 8.1 mph - N/A   Unknown
9:14 AM 44.6 °F 38.8 °F 32.0 °F 61% 30.14 in 10.0 mi SSE 11.5 mph 16.1 mph N/A   Clear
9:33 AM 46.4 °F 41.1 °F 32.0 °F 57% 30.14 in 10.0 mi South 11.5 mph - N/A   Scattered Clouds
9:54 AM 46.4 °F 41.9 °F 32.0 °F 57% 30.14 in 10.0 mi South 9.2 mph 17.3 mph N/A   Scattered Clouds
10:14 AM 48.2 °F - 33.8 °F 58% 30.14 in 10.0 mi SSE 9.2 mph - N/A   Clear
10:33 AM 50.0 °F - 33.8 °F 54% 30.14 in 10.0 mi South 6.9 mph - N/A   Clear
10:54 AM 51.8 °F - 32.0 °F 47% 30.13 in 10.0 mi South 15.0 mph 26.5 mph N/A   Clear
11:14 AM 51.8 °F - 32.0 °F 47% 30.13 in 10.0 mi South 13.8 mph - N/A   Clear
11:33 AM 51.8 °F - 32.0 °F 47% 30.12 in 10.0 mi South 12.7 mph 20.7 mph N/A   Clear
11:54 AM 53.6 °F - 33.8 °F 47% 30.11 in 10.0 mi South 10.4 mph 20.7 mph N/A   Clear
12:14 PM 53.6 °F - 33.8 °F 47% 30.10 in 10.0 mi South 12.7 mph 18.4 mph N/A   Clear
12:33 PM 53.6 °F - 33.8 °F 47% 30.10 in 10.0 mi South 13.8 mph 19.6 mph N/A   Clear
12:54 PM 53.6 °F - 33.8 °F 47% 30.09 in 10.0 mi South 15.0 mph 21.9 mph N/A   Clear
1:14 PM 55.4 °F - 33.8 °F 44% 30.09 in 10.0 mi SSE 12.7 mph 19.6 mph N/A   Clear
1:33 PM 55.4 °F - 33.8 °F 44% 30.08 in 10.0 mi SSE 12.7 mph 18.4 mph N/A   Clear
1:54 PM 55.4 °F - 33.8 °F 44% 30.08 in 7.0 mi South 12.7 mph 17.3 mph N/A   Clear
2:14 PM 55.4 °F - 33.8 °F 44% 30.08 in 10.0 mi SSE 8.1 mph - N/A   Clear
2:33 PM 55.4 °F - 33.8 °F 44% 30.07 in 10.0 mi SSE 10.4 mph 18.4 mph N/A   Clear
2:54 PM 55.4 °F - 33.8 °F 44% 30.06 in 10.0 mi SSE 10.4 mph - N/A   Clear
3:14 PM 55.4 °F - 35.6 °F 47% 30.06 in 10.0 mi SSE 8.1 mph - N/A   Clear
3:33 PM 57.2 °F - 33.8 °F 41% 30.07 in 10.0 mi South 11.5 mph 20.7 mph N/A   Clear
3:54 PM 55.4 °F - 33.8 °F 44% 30.07 in 10.0 mi SSE 12.7 mph 16.1 mph N/A   Clear
4:14 PM 55.4 °F - 33.8 °F 44% 30.08 in 10.0 mi South 13.8 mph 17.3 mph N/A   Clear
4:33 PM 53.6 °F - 33.8 °F 47% 30.08 in 10.0 mi SSE 9.2 mph - N/A   Clear
4:53 PM 51.8 °F - 35.6 °F 54% 30.09 in 10.0 mi SSE 8.1 mph - N/A   Clear
5:14 PM 51.8 °F - 33.8 °F 50% 30.09 in 10.0 mi South 9.2 mph - N/A   Clear
5:33 PM 51.8 °F - 33.8 °F 50% 30.09 in 10.0 mi South 9.2 mph - N/A   Clear
5:53 PM 51.8 °F - 33.8 °F 50% 30.10 in 10.0 mi South 8.1 mph - N/A   Clear
6:14 PM 50.0 °F - 33.8 °F 54% 30.10 in 10.0 mi SSE 10.4 mph - N/A   Clear
6:33 PM 48.2 °F - 33.8 °F 58% 30.10 in 10.0 mi SSE 9.2 mph - N/A   Clear
6:53 PM 48.2 °F - 33.8 °F 58% 30.10 in 10.0 mi SSE 8.1 mph - N/A   Clear
7:14 PM 48.2 °F - 35.6 °F 62% 30.10 in 10.0 mi SSE 8.1 mph - N/A   Clear
7:33 PM 46.4 °F 42.9 °F 35.6 °F 66% 30.10 in 10.0 mi SSE 6.9 mph - N/A   Clear
7:53 PM 46.4 °F 42.4 °F 35.6 °F 66% 30.09 in 10.0 mi SSE 8.1 mph - N/A   Clear
8:14 PM 46.4 °F 41.9 °F 35.6 °F 66% 30.09 in 10.0 mi South 9.2 mph - N/A   Clear
8:33 PM 46.4 °F 41.9 °F 35.6 °F 66% 30.09 in 10.0 mi South 9.2 mph - N/A   Clear
8:54 PM 46.4 °F 42.9 °F 33.8 °F 62% 30.10 in 10.0 mi SSE 6.9 mph - N/A   Clear
9:13 PM 46.4 °F 43.5 °F 33.8 °F 62% 30.10 in 10.0 mi SSE 5.8 mph - N/A   Clear
9:34 PM 46.4 °F 44.3 °F 33.8 °F 62% 30.10 in 10.0 mi South 4.6 mph - N/A   Clear
9:53 PM 44.6 °F 42.2 °F 33.8 °F 66% 30.10 in 10.0 mi SSE 4.6 mph - N/A   Clear
10:13 PM 46.4 °F 41.5 °F 33.8 °F 62% 30.10 in 10.0 mi South 10.4 mph - N/A   Clear
10:34 PM 46.4 °F 44.3 °F 33.8 °F 62% 30.10 in 10.0 mi SSE 4.6 mph - N/A   Clear
10:53 PM 44.6 °F 41.4 °F 33.8 °F 66% 30.10 in 10.0 mi SSE 5.8 mph - N/A   Scattered Clouds
11:13 PM 46.4 °F 43.5 °F 33.8 °F 62% 30.10 in 10.0 mi SSE 5.8 mph - N/A   Mostly Cloudy
11:34 PM 48.2 °F - 33.8 °F 58% 30.10 in 10.0 mi SSE 6.9 mph - N/A   Overcast
11:53 PM 48.2 °F - 33.8 °F 58% 30.10 in 10.0 mi SE 5.8 mph - N/A   Overcast